Portada
METAR-TAF:

METAR-TAF

Aeroports :

NWS Office

Majuro, Illes Marshall

latitud: 07-05N, longitud: 171-12E, altitud: 4 m

Observació

L'informe es va fer fa 27 minuts, a les 04:52 UTC
Vent 6 kt del Est
Temperatura 26°C
Humitat 89%
Pressió 1005 hPa
Visibilitat: 24.1 km
Núvols disperses a una alçada de 1400 ft, Cumulus congestus.
Cel ennuvolat a una alçada de 5000 ft
Cel ennuvolat a una alçada de 12000 ft
Cel cobert a una alçada de 30000 ft

METAR: PKMR 280452Z 09006KT 15SM SCT014TCU BKN050 BKN120 OVC300 26/24 A2967 RMK TCU NE-E SLP051 T02570241

Hora: 17:19 (05:19 UTC)


TAF: manca

Observacions i pronòstics meteorològics de més de 4000 aeroports (METAR i TAF).

Les estacions disponibles són els punts grocs i vermells al mapa.

Posi el ratolí al punt desitjat per veure el nom de l'estació.

Feu clic per veure les observacions i els pronòstics meteorològics.

Per canviar el mapa: feu clic els botons verds amb una creu de color negre per apropar; al botó verd amb un guió per allunyar la imatge; o en les fletxes verdes per a mapes adjacents.


METAR-TAF: